SCP
-0 -0 -0 -0 -0 0 0 0 0 0 0 0 0 0 1 1 1 1 2 2 2 2 2 2 2 2 2 2 1 1 1 0 0 0 0 0 0 0 0 0 0 0 0 0
0 0 0 -0 -0 -0 0 0 0 0 0 0 0 0 1 1 1 1 1 2 2 2 2 2 2 2 2 2 1 1 0 0 0 0 0 0 0 0 0 0 0 0 0 0
0 0 0 -0 -0 -0 0 0 0 0 0 0 0 0 0 0 1 1 1 1 2 2 2 2 2 2 2 1 1 1 0 0 0 0 0 0 0 0 0 0 0 0 0 0
0 0 0 0 0 0 0 0 0 0 0 0 0 0 0 0 1 1 1 2 2 2 2 2 2 2 1 1 1 0 0 1 1 1 1 1 0 0 0 0 0 0 0 0
0 0 0 0 0 0 0 0 0 0 0 0 0 0 0 0 1 1 1 1 2 2 2 1 1 1 1 1 0 0 1 1 1 1 1 1 1 0 0 0 0 0 0 0
0 0 0 0 0 0 0 0 0 0 0 0 0 0 0 0 0 1 1 1 1 1 1 1 1 0 0 0 0 1 1 1 1 1 1 1 1 1 1 0 0 0 0 0
0 0 0 0 0 0 0 0 0 0 0 0 0 0 0 0 0 0 0 0 0 0 0 0 0 0 0 0 0 1 1 1 1 1 1 1 1 1 1 1 0 0 0 0
-0 0 0 0 0 0 0 0 0 0 0 0 0 0 0 0 0 0 0 0 0 0 0 0 0 0 0 0 0 1 1 1 1 1 2 2 1 1 1 1 1 0 0 0
-0 -0 0 0 0 0 0 0 0 0 0 0 0 0 0 0 0 0 0 0 0 0 0 0 0 0 0 0 0 1 1 1 1 1 1 2 2 1 1 1 1 1 1 0
-0 -0 0 0 0 0 0 0 0 0 0 0 0 0 0 0 0 0 0 0 0 0 0 0 0 0 0 0 0 0 0 1 1 1 1 1 1 1 1 1 1 1 1 1
0 0 0 0 0 0 0 0 0 0 0 0 0 0 0 0 0 0 0 0 0 0 0 0 0 0 0 0 0 0 0 0 0 0 1 1 1 1 1 1 1 1 1 1
0 0 0 0 0 0 0 0 0 0 0 0 0 0 0 0 0 0 0 0 0 0 0 0 0 0 0 0 0 0 0 0 0 0 0 0 0 1 1 1 1 1 1 1
0 0 0 0 0 0 0 0 0 0 0 0 0 0 0 0 0 0 0 0 0 0 0 0 0 0 -0 -0 0 0 0 0 0 0 0 0 0 0 0 1 1 1 1 1
0 0 0 0 0 0 0 0 0 0 0 0 0 0 0 0 0 0 0 0 0 0 0 0 -0 -0 0 0 0 0 0 0 0 0 0 0 0 0 0 0 0 1 1 1
0 0 0 0 0 0 0 0 0 0 0 0 0 0 0 0 0 0 0 0 0 0 -0 -0 -0 0 0 0 0 0 0 0 0 0 0 0 0 0 0 0 0 0 1 1
0 0 0 0 0 0 0 0 0 0 0 0 0 0 0 0 0 0 0 0 0 0 0 0 0 0 0 0 0 0 0 0 0 0 0 0 0 0 0 0 0 0 0 0
0 0 0 0 0 0 0 0 0 0 0 0 0 0 0 0 0 0 0 0 0 0 0 0 0 0 0 0 0 0 0 0 0 0 0 0 0 0 0 0 0 0 0 0
0 0 0 0 0 0 0 0 0 0 0 0 0 0 0 0 0 0 0 0 0 0 0 0 0 0 0 0 0 0 0 0 0 0 0 0 0 0 0 0 0 0 0 0
0 0 0 0 0 0 0 0 0 0 0 0 0 0 0 0 0 0 0 0 0 0 0 0 0 0 0 0 0 0 0 0 0 0 0 0 0 0 0 0 0 0 0 0
0 0 0 0 0 0 0 0 0 0 0 0 0 0 0 0 0 0 0 0 0 0 0 0 0 0 0 0 0 0 0 0 0 0 0 0 0 0 0 0 0 0 0 0
0 0 0 0 0 0 0 0 0 0 0 0 0 0 0 0 0 0 0 0 0 0 0 0 0 0 0 0 0 0 0 0 0 0 0 0 0 0 0 0 0 0 0 0
0 0 0 0 0 0 0 0 0 0 0 0 0 0 0 0 0 0 0 0 0 0 0 0 0 0 0 0 0 0 0 0 0 0 0 0 0 0 0 0 0 0 0 0
0 0 0 0 0 0 0 0 0 0 0 0 0 0 0 0 0 0 0 0 0 0 0 0 0 0 0 0 0 0 0 0 0 0 0 0 0 0 0 0 0 0 0 0
0 0 0 0 0 0 0 0 0 0 0 0 0 0 0 0 0 0 0 0 0 0 0 0 0 0 0 0 0 0 0 0 0 0 0 0 0 0 0 0 0 0 0 0
0 0 0 0 0 0 0 0 0 0 0 0 0 0 0 0 0 0 0 0 0 0 0 0 0 0 0 0 0 0 0 0 0 0 0 0 0 0 0 0 0 0 0 0
0 0 0 0 0 0 0 0 0 0 0 0 0 0 0 0 0 0 0 0 0 0 0 0 0 0 0 0 0 0 0 0 0 0 0 0 0 0 0 0 0 0 0 0
Wind_Speed
4 6 2 1 2 3 2 4 3 1 2 2 0 1 3 3 2 3 3 4 5 5 5 6 6 6 7 6 6 5 5 4 3 2 1 1 1 2 2 3 3 5 6 7
6 2 3 1 2 4 5 5 3 3 1 3 2 2 2 2 1 1 1 2 3 5 6 6 5 6 6 6 6 6 6 5 4 2 1 1 2 3 3 3 3 5 6 7
2 6 2 3 4 4 3 3 2 3 1 5 6 8 7 5 2 1 0 1 2 3 5 5 4 5 5 5 5 4 3 4 4 3 3 2 3 4 3 3 3 4 6 7
1 2 1 2 1 4 2 2 4 5 8 6 5 10 6 4 3 2 1 0 1 2 2 2 2 2 2 2 2 3 3 4 4 5 4 4 4 4 4 4 3 5 6 7
1 2 4 3 2 4 4 2 5 8 10 11 8 10 2 5 1 5 5 2 2 2 3 3 3 3 2 2 3 3 4 4 4 4 4 6 6 5 4 4 5 6 5 6
3 2 4 4 1 2 1 5 7 9 9 10 3 8 2 6 7 8 8 7 6 5 5 6 6 5 5 5 5 4 4 5 5 5 6 7 7 7 7 7 7 6 5 5
3 3 2 3 6 5 6 9 7 6 6 3 2 7 5 8 8 9 9 9 9 8 8 8 9 8 8 7 7 6 6 6 6 6 7 7 8 8 9 9 7 7 7 6
3 1 2 3 6 7 7 9 9 8 8 5 5 5 8 8 7 8 9 10 11 12 11 11 11 11 11 11 10 9 8 7 7 7 7 7 8 8 8 7 8 8 7 7
4 4 1 2 5 8 8 7 7 10 11 10 6 5 9 7 7 8 10 11 12 12 12 12 12 13 13 12 12 12 10 9 9 8 8 7 7 8 9 9 9 9 7 7
6 8 5 2 5 2 6 7 6 8 8 10 7 6 4 8 6 7 8 10 10 10 11 11 11 11 11 11 11 11 11 11 10 10 9 8 8 8 9 9 10 10 10 9
6 8 8 5 5 7 4 4 6 7 8 11 12 4 9 7 5 5 7 8 8 9 10 10 10 10 10 10 11 11 11 11 10 11 10 10 10 10 10 9 10 10 10 10
4 8 10 8 1 1 4 4 5 7 8 8 12 2 9 7 5 5 6 7 8 8 9 9 10 10 10 10 10 10 10 10 11 11 11 11 11 11 12 11 11 11 11 11
3 7 10 7 5 6 4 4 6 7 9 10 13 2 7 5 4 5 6 8 8 9 10 10 10 10 10 11 11 11 10 10 10 10 10 10 11 11 12 13 12 12 11 11
5 9 12 14 11 9 7 4 6 9 10 11 11 3 5 2 4 6 8 10 11 11 10 11 11 11 11 11 11 11 11 10 10 10 10 10 11 11 12 13 13 13 12 12
5 9 10 11 9 6 4 5 6 6 8 10 10 5 4 4 6 8 10 12 12 11 11 11 11 11 11 11 11 11 11 11 11 12 12 11 12 12 12 13 13 13 13 12
4 8 9 9 4 1 3 5 4 4 5 6 6 1 4 6 8 10 11 12 13 13 13 14 14 15 15 15 15 15 14 14 13 13 14 13 13 13 13 13 13 13 13 12
4 5 7 7 2 7 3 6 7 6 5 8 8 5 8 11 12 13 15 15 14 14 16 18 18 17 17 17 16 17 16 16 15 16 16 15 14 14 13 13 13 13 13 12
5 5 6 8 7 7 8 5 6 8 5 4 5 7 10 13 15 16 17 14 14 17 19 19 18 19 18 18 18 17 17 17 17 17 17 16 15 15 14 14 13 13 12 11
4 5 6 6 9 3 6 5 8 10 10 2 6 12 15 17 19 17 12 14 18 20 20 19 19 20 19 19 18 18 18 18 18 18 17 17 16 16 15 15 14 13 12 11
2 4 6 6 10 5 6 6 7 8 7 3 12 17 19 20 18 15 18 20 21 21 19 20 20 21 20 19 18 19 19 19 18 18 17 17 16 16 16 16 15 13 12 12
6 5 6 7 6 5 6 7 9 10 10 14 17 18 19 20 19 21 22 22 21 21 22 22 21 20 19 19 19 20 20 19 19 18 17 17 17 16 17 16 14 13 13 12
7 6 5 6 5 4 6 8 8 11 14 16 18 20 21 21 22 23 23 23 23 23 23 22 20 19 19 19 19 20 20 19 19 18 18 18 17 16 15 14 14 13 13 12
4 6 6 6 5 4 6 8 10 12 15 18 19 21 22 23 23 24 24 23 23 23 23 21 22 21 20 19 19 21 20 19 19 18 18 17 17 15 15 15 14 12 11 10
4 1 3 3 2 5 9 9 11 14 17 19 20 21 22 24 25 25 23 22 23 23 22 21 22 22 21 20 20 20 20 18 18 18 17 15 15 15 14 12 11 10 10 10
3 1 3 6 5 10 8 13 16 18 19 20 21 22 23 25 25 25 23 23 22 22 21 21 20 21 22 21 20 20 19 18 17 17 15 14 14 14 12 12 11 11 11 9
1 2 5 7 8 11 15 16 18 19 20 21 23 24 23 24 25 25 23 22 22 22 22 21 22 22 22 21 20 19 18 17 16 14 14 12 11 11 10 10 10 11 13 10
Wind_Direction
233 247 243 52 297 324 271 254 239 70 28 308 12 138 106 92 123 135 148 159 164 166 156 169 172 169 162 158 166 171 172 166 191 190 238 257 268 285 287 290 317 306 304 304
218 135 44 350 214 224 221 228 218 161 75 298 278 247 146 122 96 44 187 192 176 167 164 164 162 161 158 159 164 171 176 172 187 169 204 267 307 297 312 311 311 305 309 307
19 55 54 189 177 206 213 272 311 313 278 230 260 235 192 162 155 125 243 238 204 178 165 153 154 157 158 160 171 174 173 183 198 198 212 215 227 246 255 285 289 309 310 304
74 61 272 235 181 279 247 17 303 289 279 275 272 277 194 165 163 95 52 196 191 145 131 118 129 135 156 170 188 200 208 214 215 224 238 261 282 296 313 301 306 302 293 297
334 340 295 290 348 302 354 348 285 285 281 275 243 265 189 128 88 31 26 42 50 50 44 33 22 14 355 315 272 246 242 245 244 252 259 264 270 287 292 295 291 290 289 285
294 266 289 321 326 284 213 241 245 250 261 256 253 279 214 67 15 10 27 36 41 38 30 25 18 15 359 345 326 304 284 273 267 262 265 268 281 286 291 290 295 289 290 285
259 236 208 261 260 207 242 278 278 265 250 262 112 268 69 60 40 32 34 38 38 36 30 24 15 8 1 353 344 334 322 307 296 281 273 270 273 275 270 275 282 287 293 294
295 319 31 322 312 308 295 291 290 300 302 304 225 255 95 86 71 60 53 48 44 40 33 27 20 14 8 3 358 349 342 332 325 310 295 283 277 272 273 274 285 286 288 296
308 326 28 330 309 299 290 278 309 287 278 279 271 125 131 125 89 68 57 50 42 36 33 29 25 21 16 12 8 0 354 349 342 329 317 300 290 285 287 285 272 274 276 283
303 302 314 323 251 211 301 304 262 269 287 285 276 251 172 136 91 68 52 43 38 31 29 26 23 20 17 13 11 7 4 359 351 340 330 320 309 296 287 281 281 280 279 276
285 290 296 292 310 321 276 249 283 284 287 293 294 330 63 89 75 53 46 35 26 19 17 15 13 10 7 5 2 360 356 355 350 344 335 326 319 311 299 286 281 276 272 270
298 293 299 300 58 266 284 308 291 291 294 283 285 1 83 87 74 40 24 16 9 1 359 0 359 356 354 351 348 345 344 343 340 338 332 328 323 319 310 299 291 283 275 267
300 279 286 276 185 189 233 262 286 290 283 281 287 47 106 89 56 26 4 354 345 342 342 343 345 341 338 335 332 329 328 328 326 326 325 326 325 322 316 309 300 289 278 270
282 271 282 296 313 318 297 291 293 284 285 294 305 8 126 62 352 349 345 338 331 328 328 329 327 323 321 317 315 312 311 311 311 312 312 315 317 317 316 313 308 296 284 275
273 272 280 287 298 301 322 333 325 308 315 311 329 348 60 10 335 329 326 322 316 314 312 310 307 305 303 302 300 298 299 300 301 301 301 301 302 305 307 310 310 304 291 279
275 285 288 276 278 214 93 28 358 354 339 327 316 331 46 335 321 315 310 305 301 300 300 301 303 305 305 306 304 303 300 297 294 293 293 294 296 298 301 303 305 307 300 288
273 275 284 284 161 219 150 28 2 353 344 326 320 353 337 317 314 311 306 300 300 307 311 311 311 309 307 305 304 301 299 296 293 290 289 289 290 292 294 299 304 304 304 297
307 291 278 292 278 273 74 43 2 334 314 307 309 314 314 308 308 303 294 299 309 313 312 311 309 306 304 304 302 299 297 295 292 289 288 287 286 286 288 290 294 298 297 295
353 311 301 302 300 121 110 29 355 325 306 273 305 318 317 317 308 299 318 328 316 310 308 306 305 304 302 301 301 300 297 294 292 290 289 289 287 286 285 285 287 291 292 288
76 311 303 316 305 334 73 17 337 295 279 58 326 320 319 316 308 316 328 316 308 306 305 304 303 301 299 299 299 296 294 293 292 291 291 290 287 284 282 281 283 284 284 281
328 327 341 326 315 77 41 343 314 299 343 339 322 316 313 312 307 309 310 308 307 304 302 302 300 299 298 298 296 293 291 290 290 290 288 285 282 279 275 274 273 275 275 275
333 333 349 326 320 59 18 337 337 323 320 315 314 313 312 309 306 307 308 307 306 304 303 303 301 298 297 295 293 290 289 291 290 289 286 283 280 278 277 274 271 270 271 267
359 5 348 350 8 25 336 321 319 316 313 314 314 313 310 308 308 308 308 307 306 305 304 303 300 299 298 296 293 291 292 292 289 286 283 281 279 276 273 271 268 265 260 256
119 263 292 282 287 321 318 316 320 322 317 314 312 311 311 310 309 309 308 307 307 305 305 304 302 300 298 298 295 292 292 290 287 284 282 280 277 272 269 266 263 260 257 253
74 227 289 278 317 316 318 330 326 320 314 311 311 311 310 309 308 309 308 307 307 307 305 304 301 299 299 298 295 293 291 289 285 283 281 278 273 270 268 264 259 258 256 252
120 356 326 336 343 317 318 323 319 316 315 314 313 311 310 309 308 309 308 308 308 306 306 303 301 300 300 299 296 293 290 286 282 280 276 271 268 267 263 263 259 241 241 238